Tracking 17143 objects as of 30-June-2015
HD Live streaming from Space Station

SL-14 R/B

Track SL-14 R/B now!
10-day predictions
SL-14 R/B is classified as:


NORAD ID: 16720
Int'l Code: 1986-034B
Perigee: 613.3 km
Apogee: 640.1 km
Inclination: 82.6 °
Period: 97.1 minutes
Semi major axis: 6997 km
RCS: 3.5564 m2 (large)
Launch date: May 15, 1986
Source: Commonwealth of Independent States (former USSR) (CIS)

Note: This is a ROCKET BODY
Your satellite tracking list
Your tracking list is empty





NASA's NSSDC Master Catalog

Two Line Element Set (TLE):
1 16720U 86034B   15179.56816494  .00000180  00000-0  19142-4 0  9993
2 16720 082.5529 192.3162 0019197 318.8679 161.0554 14.83095701572590

Source of the keplerian elements: AFSPC

N2YO: 324